PAGEOS 1 DEB, 9468

Orbit data source: Space-Track

PAGEOS 1 DEB, 9468 is space debris in LEO originally from a launch on Fri, 24 Jun 1966 UTC launched from the Air Force Western Test Range (AFWTR). Debris objects in space refer to the collection of defunct objects orbiting the Earth. Examples of debris include non-operational satellites, rocket bodies, and fragments generated from explosions, collisions, or faulty payload assembly.

Loading next visibility...
Identifier
9468, 1966-056AH
Orbit
LEO
Last TLE update
1 month ago
Origin
Manufacturer
Unknown
Mission
Spacecraft
Bus & Motor
Unknown
Mass
Unknown
Launch date (UTC)
1966-06-24 (59 years ago)
Launch vehicle
Unknown
Launch site
Air Force Western Test Range (AFWTR)
Object type
Payload
Rocket body
Debris
Shape & HBR
Unknown
Radar Cross Section
0.200 m², Medium (>0.1 m² and < 1m²)

Expand to show TLE details & history

TLE from 1 month ago
0 PAGEOS 1 DEB
1 09468U 66056AH  25146.02646242  .00000348  00000-0  11704+0 0  9991
2 09468  85.0380 163.1688 1476553 314.0579  34.7508  8.06687613 34612
Epoch: 2025-05-26T00:38Z
TLE epoch observation values (Epoch: 2025-05-26T00:38:06.353Z)
Latitude
Longitude
-90.20219°
Altitude
2,941.626 km
Speed
6.9 km/s
True Right ascension
10h 52m 40s
True Declination
0° 00' 00"
Sunlit
Object was in daylight at epoch
Visualization orbit readout
Latitude
52.16103°
Longitude
-89.59621°
Altitude
4,993.3 km
Speed
5.676 km/s
Apparent Right ascension
13h 48m 45s
Apparent Declination
50° 02' 40"
Sunlit
Object is in daylight
Visualization observer readout
Local Sidereal Time
08:34:53
Azimuth
51.221° ENE
Elevation
36.182°
Doppler factor
1
Orbital elements
Apogee altitude
5,671.918 km
Perigee altitude
2,571.241 km
Semi-major axis
10,499.716 km
Eccentricity
0.14766
Inclination
85.038°
RAAN
163.1688°
Arg. of periapsis
314.0579°
True anomaly
Unknown
Mean anomaly
34.7508°
Eccentric anomaly
Unknown
Mean motion
2.01733 °/min
Orbital period
178.45 mins
BSTAR
0.11704
Loading maneuver chart data...
Loading SW <> Apogee altitude chart data...

PAGEOS 1 DEB Visibility forecast

Observer location: undefined°, undefined°

Span
Click to sort rows by Start time (UTC) header in descending order
Start Az.
Max El. time (UTC)
Max El. Az.
Max El.
End time (UTC)
End Az.
20 mins2025-07-01 20:54:43.230Z51.312° ENE2025-07-01 20:54:43.230Z51.312° ENE30.557°2025-07-01 21:14:43.230Z9.162° NNE
49 mins2025-07-01 23:27:43.230Z195.585° SSW2025-07-01 23:46:43.230Z279.199° WNW43.536°2025-07-02 00:16:43.230Z6.052° NNE
37 mins2025-07-02 02:41:43.230Z280.673° WNW2025-07-02 02:57:43.230Z322.515° NNW19.341°2025-07-02 03:18:43.230Z8.774° NNE
40 mins2025-07-02 06:11:43.230Z353.056° N2025-07-02 06:32:43.230Z38.553° NE19.776°2025-07-02 06:51:43.230Z82.946° E
54 mins2025-07-02 09:13:43.230Z354.673° N2025-07-02 09:44:43.230Z84.283° E43.405°2025-07-02 10:07:43.230Z165.042° S
46 mins2025-07-02 12:15:43.230Z349.983° N2025-07-02 12:39:43.230Z295.023° NW33.028°2025-07-02 13:01:43.230Z233.686° WSW
31 mins2025-07-02 20:23:43.230Z115.927° SE2025-07-02 20:40:43.230Z60.952° ENE30.024°2025-07-02 20:54:43.230Z21.49° NNE
|